Showing default

KINEIS-4D, 63302

Orbit data source: Space-Track

KINEIS-4D, 63302 is a French payload satellite in SSO that was launched on Tue, 18 Mar 2025 UTC via an ELECTRON launch vehicle from the Rocket Lab Launch Complex (RLLC). Payload-class satellites include a variety of spacecraft equipped with specific instruments for various scientific and technological missions. These include communications satellites like Starlink; space stations such as the ISS; scientific satellites like the Hubble; Earth observation satellites from companies like Planet Labs, Umbra, and HawkEye 360; GPS; miniature CubeSats for education and research; and military/defense satellites.

Loading next visibility...
Identifier
63302, 2025-056C
Orbit
SSO
Country
Flag of FRFR
Related business
Manufacturer
KINEIS
Mission
Operational Commercial Communications
Bus & Motor
CUBESAT 16U, Unknown motor
Mass
28 kg wet, 28 kg dry
Launch date (UTC)
2025-03-18 (6 months ago)
Launch vehicle
ELECTRON
Launch site
Rocket Lab Launch Complex (RLLC)
Object type
Payload
Rocket body
Debris
Shape & HBR
Box + 2 Pan + 1 Ant, 0.8 m
Radar Cross Section
0.229 m², Medium (>0.1 m² and < 1m²)

Expand to show TLE details & history
Last TLE update: 1 day ago

TLE from 1 day ago
0 KINEIS-4D
1 63302U 25056C   25260.53343966  .00002055  00000-0  33222-3 0  9993
2 63302  97.9923  24.7628 0002816 114.8949 245.2552 14.72381205 27015
Epoch: 2025-09-17T12:48Z
TLE epoch observation values (Epoch: 2025-09-17T12:48:09.186Z)
Latitude
0.00003°
Longitude
-163.9835°
Altitude
657.314 km
Speed
7.528 km/s
True Right ascension
01h 39m 03s
True Declination
0° 00' 00"
Sunlit
Object was in full shadow at epoch
Visualization orbit readout
Latitude
Unknown
Longitude
Unknown
Altitude
Unknown
Speed
Unknown
Apparent Right ascension
Unknown
Apparent Declination
Unknown
Sunlit
N/A
Visualization observer readout
Local Sidereal Time
11:41:37
Azimuth
Unknown
Elevation
Unknown
Doppler factor
Unknown
Orbital elements
Apogee altitude
652.511 km
Perigee altitude
648.553 km
Semi-major axis
7,028.669 km
Eccentricity
0.00028
Inclination
97.9923°
RAAN
24.7628°
Arg. of periapsis
114.8949°
True anomaly
245.2259°
Mean anomaly
245.2552°
Eccentric anomaly
245.24055°
Mean motion
3.68327 °/min
Orbital period
97.74 mins
BSTAR
0.00033222
Loading maneuver chart data...
Computing Atmospheric mass density...
Loading historical data...
Loading historical data...
Loading historical data...
Loading historical data...
Loading historical data...
Loading historical data...
Loading historical data...

Documentation

Showing up to 5 results
|